Flag Weather past 2 weeks in Kerpen, North Rhine-Westphalia, Germany

Now
41 °F

Passing clouds.


Feels Like: 37 °F
Forecast: 41 / 46 °F
Wind: 6 mph from East

Location: Noervenich

Current Time: Nov 26, 2014 at 1:32:52 AM

Latest Report: Nov 26, 2014 at 12:20 AM


Visibility: N/A

Pressure: 30.09 "Hg

Humidity: 87%

Dew point: 37 °F

Location of KerpenLocation

Historic Weather in Kerpen — Graph

°F

Kerpen temperature yesterday

Maximum temperature yesterday: 46 °F (at 3:20 PM)
Minimum temperature yesterday: 28 °F (at 4:20 AM)
Average temperature yesterday: 36 °F

Past Weeks' High & Low Weather Summary

 TemperatureHumidityPressure
High55 °F (Nov 11, 2:20 PM)100% (Nov 12, 11:20 PM)30.33 "Hg (Nov 12, 11:20 PM)
Low28 °F (Nov 25, 4:20 AM)66% (Nov 21, 1:20 PM)29.53 "Hg (Nov 16, 1:20 PM)
Average46 °F89%29.92 "Hg
* Reported Nov 11 12:20 AM — Nov 26 12:20 AM, Kerpen, Weather by CustomWeather, © 2014

Note: Actual official high and low records may vary slightly from our data, if they occured in-between our weather recording intervals... More about our weather records

Advertising

Kerpen weather history for previous 24 hours

 ConditionsComfort  
Time TempWeatherWind HumidityBarometerVisibility
12:20 AM
Nov 26
41 °FPassing clouds.6 mph87%30.09 "HgN/A
11:20 PM
Nov 25
41 °FPassing clouds.5 mph87%30.12 "HgN/A
10:20 PM41 °FPassing clouds.6 mph81%30.12 "HgN/A
9:20 PM41 °FPassing clouds.3 mph81%30.12 "HgN/A
8:20 PM39 °FPassing clouds.1 mph81%30.15 "HgN/A
7:20 PM39 °FPartly cloudy.2 mph87%30.15 "HgN/A
6:20 PM41 °FPassing clouds.1 mph81%30.15 "HgN/A
5:20 PM41 °FPassing clouds.1 mph87%30.18 "HgN/A
4:20 PM45 °FPartly sunny.2 mph81%30.18 "HgN/A
3:20 PM46 °FPartly sunny.2 mph71%30.18 "HgN/A
2:20 PM45 °FPartly sunny.3 mph76%30.21 "HgN/A
1:20 PM43 °FScattered clouds.6 mph76%30.21 "HgN/A
12:20 PM41 °FScattered clouds.6 mph81%30.24 "HgN/A
11:20 AM37 °FPassing clouds.5 mph93%30.27 "HgN/A
10:20 AM34 °FPassing clouds.3 mph100%30.27 "HgN/A
9:54 AM32 °FPassing clouds.2 mph100%30.27 "Hg4 mi
9:20 AM32 °FIce fog.3 mph93%30.27 "Hg3 mi
8:20 AM30 °FPassing clouds.1 mph100%30.27 "Hg4 mi
7:58 AM30 °FIce fog.1 mph100%30.27 "Hg3 mi
7:20 AM30 °FIce fog.1 mph100%30.27 "Hg1 mi
7:00 AM30 °FIce fog.2 mph100%30.30 "Hg1 mi
6:20 AM30 °FIce fog.1 mph100%30.30 "Hg1 mi
5:20 AM30 °FIce fog.2 mph100%30.30 "Hg1 mi
4:20 AM28 °FIce fog.1 mph100%30.30 "Hg1 mi
3:20 AM32 °FPassing clouds.2 mph93%30.30 "Hg6 mi
2:20 AM30 °FPassing clouds.2 mph93%30.30 "HgN/A
1:20 AM32 °FPassing clouds.2 mph93%30.33 "HgN/A
Weather by CustomWeather, © 2014

See weather overviewHow to use our weather pages